Temp_Advection
nan nan nan nan nan nan nan nan nan nan nan nan nan nan nan nan nan nan nan nan nan nan nan nan nan nan nan nan nan nan nan nan nan nan nan nan nan nan nan nan nan nan nan
nan 0 0 -0 0 0 0 0 0 0 0 0 0 0 0 0 0 0 -0 -0 0 0 0 -0 -0 0 0 0 0 0 0 0 -0 -0 0 0 0 0 0 0 0 0 nan
nan -0 -0 -0 0 0 0 0 0 0 0 0 0 0 0 0 0 0 0 -0 -0 -0 0 0 -0 -0 -0 0 0 0 0 0 -0 -0 -0 0 -0 -0 0 0 0 -0 nan
nan 0 -0 -0 0 0 0 0 0 0 0 0 0 0 0 0 0 0 0 0 -0 -0 0 0 -0 -0 -0 0 0 0 0 0 0 -0 0 0 0 0 -0 0 0 -0 nan
nan 0 -0 0 0 0 0 0 0 0 0 0 0 -0 -0 0 0 0 0 0 -0 -0 -0 -0 -0 -0 -0 -0 0 0 0 0 0 0 -0 -0 -0 -0 -0 -0 0 0 nan
nan 0 0 0 0 0 0 0 0 0 0 0 0 0 0 0 0 0 0 0 -0 -0 -0 -0 -0 -0 -0 -0 0 0 -0 0 0 0 -0 -0 -0 -0 0 0 0 -0 nan
nan 0 -0 0 0 0 0 0 0 0 0 0 0 0 0 -0 0 0 0 0 0 -0 -0 -0 0 0 0 -0 0 0 -0 -0 -0 -0 -0 -0 -0 -0 -0 -0 -0 -0 nan
nan -0 -0 -0 0 0 0 0 0 0 0 0 0 0 0 0 -0 -0 0 0 0 -0 -0 -0 -0 -0 0 -0 -0 0 -0 -0 -0 -0 -0 -0 -0 -0 0 0 0 0 nan
nan 0 -0 -0 -0 -0 0 0 -0 0 0 0 0 0 0 0 -0 0 -0 -0 0 0 -0 -0 -0 -0 -0 -0 -0 -0 0 0 -0 -0 -0 0 -0 0 0 0 0 0 nan
nan 0 0 0 -0 -0 0 0 0 -0 -0 0 0 0 0 0 -0 -0 -0 0 0 0 -0 -0 -0 0 0 0 0 0 0 -0 -0 0 0 0 0 0 0 0 0 0 nan
nan -0 -0 0 0 -0 -0 0 0 0 0 0 0 0 -0 -0 -0 -0 0 -0 0 0 0 0 -0 -0 0 0 0 0 -0 -0 -0 0 0 0 0 0 -0 0 0 0 nan
nan -0 -0 -0 0 0 0 -0 0 0 0 0 0 0 -0 -0 -0 0 0 0 0 0 0 0 -0 -0 -0 -0 0 0 -0 -0 -0 0 0 0 -0 -0 -0 -0 0 0 nan
nan -0 -0 -0 -0 -0 -0 0 0 -0 0 0 0 -0 0 0 -0 -0 0 0 0 0 0 0 0 -0 -0 0 0 0 0 0 -0 0 0 0 0 0 -0 -0 0 0 nan
nan -0 -0 -0 -0 -0 -0 -0 0 0 -0 -0 0 0 0 0 -0 -0 -0 -0 0 0 0 0 0 -0 -0 -0 0 0 0 0 0 0 0 0 0 0 -0 -0 -0 0 nan
nan -0 -0 -0 -0 -1 -1 -0 -0 -0 0 0 -0 0 0 0 0 -0 -0 -0 -0 0 0 0 0 0 0 -0 -0 0 0 0 0 0 -0 0 0 0 0 0 -0 -0 nan
nan -0 -0 -0 -0 -0 -1 -1 -1 -0 0 -0 -0 1 1 0 -0 0 0 -0 -0 -0 -0 0 0 0 0 0 -0 -0 0 0 0 0 0 0 0 0 0 0 0 -0 nan
nan -0 -0 -0 0 -0 -0 -0 -1 -1 -0 0 -0 0 1 0 0 -0 -0 -0 -0 -0 -0 0 0 0 0 0 -0 -0 -0 -0 0 0 0 0 0 0 0 0 0 0 nan
nan -1 -0 -0 -0 -0 -0 -0 0 0 -0 -1 -0 0 0 0 1 -0 -0 -1 -0 0 0 -0 -0 -0 0 0 -0 0 0 -0 -0 0 0 -0 0 0 0 0 0 0 nan
nan -1 -1 -1 -1 -1 -1 -1 -0 0 1 -0 -1 -0 0 -0 0 1 0 -1 -0 0 0 -0 -0 -0 -0 -0 0 0 0 0 0 -0 0 0 0 -0 0 0 0 0 nan
nan -1 -1 -1 -0 -1 -1 -1 -1 -1 0 1 0 -1 -0 -0 -0 -0 -0 1 -0 -0 -0 -0 -0 -0 -0 -0 0 0 -0 1 0 -0 0 0 0 1 0 0 0 0 nan
nan -1 -1 -2 -1 -0 -1 -1 -2 -2 -1 0 1 0 -1 -1 -0 -0 -1 -0 1 0 -1 -0 -0 -0 -1 0 0 0 0 1 0 0 0 0 1 0 -0 -0 -0 0 nan
nan -0 -0 -1 -1 -0 -0 -0 -1 -2 -2 -1 -1 -1 -0 -0 -0 -0 -0 -1 -0 -0 -0 -0 -0 -0 -0 -0 1 1 0 -1 -1 -0 0 -0 0 0 0 0 -0 -1 nan
nan -0 -1 -0 -0 0 -0 -0 -0 0 -0 -1 -1 -1 -0 -0 -0 -0 -0 -0 -0 -0 -0 -0 -0 -1 -1 -0 0 0 -0 -0 -1 -0 0 0 1 0 0 0 -0 -0 nan
nan 0 0 0 -0 0 0 0 0 0 0 -0 -0 -0 -0 -0 -0 -0 -0 -0 0 -0 -1 -1 0 -0 -1 -1 0 0 1 -0 0 0 -0 -0 1 0 -1 -0 0 0 nan
nan 0 1 -0 -0 -0 0 0 0 -0 -0 -0 -0 -0 -0 -0 -0 -0 -0 0 0 -0 -0 -0 -1 -1 -0 -1 0 0 -2 -0 1 -0 -0 0 0 -0 0 0 -0 -0 nan
nan nan nan nan nan nan nan nan nan nan nan nan nan nan nan nan nan nan nan nan nan nan nan nan nan nan nan nan nan nan nan nan nan nan nan nan nan nan nan nan nan nan nan
Wind_Speed
2 2 4 5 6 5 6 8 9 9 8 6 6 6 5 4 3 2 2 3 5 6 7 9 11 9 9 7 8 7 6 6 10 9 11 11 9 7 8 10 10 9 8
3 1 3 7 8 8 8 7 7 7 6 5 5 5 4 4 3 3 4 7 8 8 9 11 10 7 8 8 6 6 6 8 10 11 11 9 7 6 9 10 8 8 7
2 3 5 7 8 9 9 8 7 6 5 4 4 3 3 3 2 3 5 8 10 8 6 7 8 7 7 8 6 7 7 9 11 10 8 6 7 8 8 6 5 6 6
3 1 3 7 9 10 10 10 9 8 6 4 4 4 3 3 3 3 5 8 10 9 7 3 5 8 7 7 7 9 9 8 9 9 8 8 10 9 4 2 4 5 6
3 1 3 7 9 9 10 9 9 10 8 7 6 6 4 4 4 4 5 7 8 7 9 5 4 8 9 9 9 10 11 10 8 8 8 7 4 1 1 2 3 4 5
4 1 4 7 8 9 11 11 10 10 10 9 8 8 5 5 5 6 6 6 8 8 7 5 4 7 8 11 12 12 10 8 7 7 6 3 2 2 1 2 3 3 3
3 2 3 6 8 9 10 12 12 11 11 11 11 10 8 6 7 8 10 9 8 8 8 6 5 7 9 12 14 13 10 8 6 6 7 3 2 3 1 0 1 1 1
1 3 2 5 8 9 10 12 13 12 12 12 12 12 11 10 9 10 11 12 11 10 9 9 8 8 10 12 15 13 11 10 8 8 7 6 4 4 3 2 1 1 1
2 2 4 6 7 9 9 12 13 13 14 14 14 14 14 13 12 12 12 14 15 13 10 9 9 10 11 13 15 15 13 11 10 9 9 7 6 6 5 4 4 3 3
6 6 5 8 9 10 11 12 14 14 15 16 16 16 17 16 15 14 14 16 16 16 15 12 12 12 13 14 15 17 17 15 13 11 11 10 8 8 8 7 6 6 5
11 12 11 10 11 12 13 14 14 17 18 18 18 18 19 19 18 17 16 17 18 18 18 17 14 14 15 16 16 17 19 19 17 14 13 11 10 9 10 9 9 8 8
16 13 12 13 14 15 16 16 18 18 19 22 22 21 21 21 20 20 18 18 20 20 20 21 18 17 18 19 18 19 20 20 19 17 15 14 13 11 11 11 11 11 10
11 10 10 11 13 15 18 19 20 23 22 21 22 24 24 24 23 23 22 22 22 23 24 24 24 23 22 21 21 20 20 21 21 19 17 15 15 13 13 13 13 13 13
14 14 14 14 15 15 17 19 22 25 25 26 25 25 26 26 27 27 26 26 25 25 27 27 27 27 24 23 23 23 22 23 23 22 20 18 17 16 15 14 14 15 15
18 17 17 19 20 20 21 21 22 25 28 29 29 28 28 28 29 29 30 29 29 29 30 30 30 29 29 27 26 27 26 26 25 26 24 22 20 19 17 17 16 16 17
18 21 22 22 23 24 25 25 26 26 27 29 32 32 31 31 32 31 32 34 33 33 33 33 32 31 32 31 30 29 29 29 28 29 28 26 24 22 20 19 19 19 18
22 25 27 29 30 30 30 30 30 29 30 31 31 33 34 33 35 34 35 34 34 35 35 35 34 32 32 33 34 34 32 31 32 32 31 31 28 26 24 23 22 20 20
29 32 35 36 37 38 39 39 37 35 34 33 34 33 34 36 35 36 35 37 37 36 36 38 37 37 36 35 35 37 37 35 34 35 35 34 32 29 27 26 25 23 22
28 31 33 34 35 35 36 38 41 41 38 36 34 34 33 35 37 37 38 37 37 38 40 40 41 39 40 39 37 38 40 40 37 36 38 38 36 33 31 29 28 27 25
27 29 29 29 28 29 31 33 34 37 40 38 35 33 33 32 33 35 39 40 37 35 38 42 43 44 42 41 41 39 41 40 38 37 36 37 38 37 35 34 32 31 29
29 29 29 27 22 23 26 31 34 34 34 35 36 31 30 31 30 31 34 39 39 35 35 38 41 43 43 43 44 45 45 43 44 42 37 37 38 38 38 36 35 34 33
28 29 26 23 22 22 25 25 26 29 28 25 28 27 24 24 26 26 29 30 35 36 37 36 36 40 44 46 46 40 32 44 49 46 43 42 39 37 37 36 35 36 36
27 27 24 24 25 22 21 22 21 17 15 18 19 21 21 18 19 23 24 26 26 31 33 34 36 39 41 42 43 37 20 31 33 43 48 46 43 42 42 38 37 37 36
25 23 23 23 23 20 15 16 11 14 18 17 16 17 16 17 19 22 22 22 22 25 28 31 33 35 34 38 36 40 45 24 20 13 28 39 41 46 44 40 33 37 38
21 20 23 22 20 15 13 10 12 18 15 16 16 17 16 16 18 21 21 21 23 26 28 30 31 33 36 40 37 38 41 41 43 34 33 27 27 32 36 36 31 25 19
18 17 19 19 19 16 14 12 14 16 14 15 14 14 14 15 17 20 20 22 25 27 29 30 31 32 35 36 37 38 37 32 32 33 30 32 36 31 27 30 31 30 26
Wind_Direction
112 144 149 204 216 191 182 169 163 167 168 165 163 158 157 157 153 156 161 156 142 130 124 131 133 142 151 141 128 108 108 121 136 136 133 130 131 103 96 93 85 70 64
93 111 185 214 222 205 192 188 179 172 170 169 164 161 158 156 151 146 154 149 140 122 114 126 123 142 149 135 135 129 130 133 138 137 133 132 121 99 101 100 76 54 57
40 313 242 215 231 221 206 195 193 191 183 189 187 185 179 175 153 131 139 148 139 126 138 137 158 155 150 154 151 146 152 140 143 148 149 143 122 122 123 102 46 56 64
60 149 217 215 228 223 217 206 204 206 207 212 216 217 211 211 180 151 148 153 148 153 190 196 188 189 172 179 173 164 160 148 142 145 144 134 125 128 142 61 55 59 60
100 152 199 223 220 224 228 218 214 214 219 222 212 215 235 241 209 181 172 172 166 176 196 239 212 192 194 191 190 180 166 149 136 141 141 138 153 185 162 107 78 64 65
123 158 224 237 232 224 224 224 224 225 224 225 228 232 227 237 231 206 207 196 183 191 213 228 202 189 191 189 190 185 183 184 184 167 171 179 214 225 170 96 67 57 61
171 188 238 234 245 241 235 228 228 229 231 229 228 232 239 237 233 227 222 217 211 211 224 229 213 192 188 187 190 195 197 201 197 200 197 215 231 220 219 159 62 59 74
297 241 255 260 256 251 246 239 236 234 233 232 232 231 236 242 240 239 237 226 225 229 232 229 223 204 195 194 196 204 208 213 222 224 230 229 236 226 230 236 232 219 182
339 297 261 258 272 265 270 254 242 239 237 238 240 240 240 242 243 247 242 239 230 232 240 236 227 215 208 204 207 215 224 228 234 237 235 229 229 228 233 241 243 239 224
317 294 272 253 251 254 268 263 256 242 242 242 243 245 245 247 246 249 245 243 236 236 235 240 233 225 217 216 216 219 227 233 237 237 234 233 233 232 237 241 245 246 243
309 303 287 266 260 252 250 264 261 260 250 245 246 246 246 248 250 249 248 245 241 243 238 238 240 235 228 225 224 224 229 235 237 238 237 234 231 237 244 246 250 254 252
314 311 298 283 266 259 253 249 255 257 259 258 253 251 254 254 253 252 250 248 245 245 244 239 240 241 235 233 231 230 231 234 237 239 237 239 239 246 251 252 257 259 258
302 298 292 282 276 271 260 255 251 251 254 253 256 256 255 256 255 253 251 248 247 244 243 240 239 239 240 237 237 236 235 235 237 239 240 241 241 245 255 256 258 260 260
298 298 296 293 287 276 268 264 257 254 252 253 254 253 255 254 255 253 253 250 250 248 247 245 244 244 245 243 240 240 239 238 238 238 240 241 245 247 254 260 259 261 261
300 299 302 301 296 289 279 269 263 259 255 255 252 250 250 253 253 253 254 252 251 250 249 248 248 247 246 246 245 243 241 240 240 240 241 242 245 247 250 258 264 262 262
297 297 297 293 290 287 284 279 273 263 256 254 253 252 251 251 253 255 254 252 251 250 249 248 249 248 247 248 249 247 245 243 242 243 242 243 244 246 249 252 261 267 264
296 295 292 291 288 284 282 279 276 270 266 258 254 252 252 252 252 253 255 253 250 249 250 249 248 248 246 248 249 249 248 247 244 243 244 245 244 246 248 251 256 259 265
299 297 294 290 286 284 282 280 277 275 272 267 261 257 253 252 252 255 254 254 250 250 250 249 249 250 249 250 250 249 247 247 247 245 244 245 244 245 248 249 252 256 260
315 310 304 297 291 286 282 277 275 273 270 270 267 264 259 256 254 252 255 255 256 256 253 251 249 252 251 250 252 253 251 246 247 247 243 244 246 246 248 249 252 254 258
332 326 319 313 302 294 291 287 283 278 272 268 270 270 265 261 259 259 255 258 258 255 260 258 256 254 255 254 255 256 257 254 248 247 247 246 247 249 250 252 253 255 257
344 339 332 324 317 308 302 300 294 287 279 269 264 269 270 264 262 262 261 255 258 263 259 262 261 260 259 257 254 256 256 252 247 246 246 245 247 249 250 250 254 254 256
347 344 340 337 334 325 314 308 305 302 295 280 272 269 275 268 263 267 267 265 257 261 265 263 266 263 264 263 261 256 257 254 245 240 241 243 245 246 246 249 256 257 258
349 349 348 350 347 340 327 317 314 319 316 307 293 284 285 270 274 272 273 270 267 262 267 266 265 268 266 261 263 250 250 245 244 240 240 242 244 247 247 248 257 258 260
355 356 355 354 349 343 339 341 347 338 323 314 308 296 289 275 275 277 275 268 266 268 270 271 268 265 270 272 258 257 242 268 223 230 244 246 249 246 245 248 254 261 264
357 1 8 1 356 355 350 346 342 330 319 314 303 306 300 286 277 280 274 270 269 269 272 273 275 272 266 264 268 264 261 258 253 232 240 240 236 240 242 243 242 237 242
354 349 345 1 3 5 359 344 332 329 315 317 309 303 303 297 290 280 271 266 270 274 275 276 274 271 268 266 265 270 264 243 243 248 244 247 247 237 234 239 233 241 258
Height
1532 1533 1533 1533 1534 1535 1536 1536 1537 1538 1538 1538 1538 1537 1537 1537 1536 1536 1535 1535 1535 1535 1535 1535 1536 1536 1537 1537 1538 1537 1538 1538 1538 1539 1539 1539 1539 1539 1539 1539 1539 1538 1538
1532 1533 1533 1534 1534 1535 1536 1537 1538 1538 1538 1538 1538 1538 1538 1538 1537 1537 1536 1536 1537 1537 1537 1537 1538 1538 1538 1538 1539 1538 1539 1539 1539 1540 1540 1540 1540 1540 1540 1540 1540 1540 1539
1532 1533 1533 1533 1534 1535 1536 1537 1538 1538 1539 1539 1539 1539 1539 1539 1538 1538 1537 1537 1538 1539 1539 1539 1539 1540 1540 1540 1540 1539 1540 1540 1540 1540 1541 1541 1541 1541 1541 1541 1541 1540 1540
1532 1532 1533 1534 1535 1535 1536 1536 1537 1538 1539 1539 1539 1539 1540 1539 1539 1539 1539 1539 1539 1540 1540 1540 1540 1541 1541 1541 1541 1541 1541 1541 1541 1541 1542 1542 1542 1542 1542 1542 1542 1541 1541
1532 1533 1533 1534 1534 1535 1536 1537 1537 1538 1539 1539 1539 1539 1540 1540 1540 1540 1540 1540 1540 1540 1541 1541 1541 1541 1541 1541 1542 1542 1542 1542 1542 1543 1543 1543 1543 1543 1543 1542 1542 1542 1541
1533 1533 1533 1534 1534 1534 1535 1536 1536 1537 1537 1538 1538 1539 1540 1540 1540 1540 1540 1540 1540 1541 1541 1541 1541 1541 1541 1541 1542 1542 1543 1543 1544 1544 1544 1544 1544 1544 1544 1543 1543 1543 1542
1533 1533 1533 1533 1534 1534 1535 1535 1535 1536 1537 1537 1538 1538 1539 1539 1539 1540 1540 1540 1540 1540 1540 1541 1541 1541 1541 1541 1542 1542 1543 1543 1544 1544 1544 1544 1544 1544 1544 1544 1544 1543 1543
1533 1534 1534 1534 1533 1534 1534 1535 1535 1535 1536 1537 1537 1537 1538 1538 1538 1538 1539 1539 1540 1540 1540 1540 1540 1541 1541 1541 1542 1542 1543 1543 1543 1544 1544 1544 1544 1544 1544 1544 1544 1543 1543
1533 1533 1534 1534 1534 1533 1533 1533 1534 1534 1535 1535 1535 1536 1536 1536 1537 1537 1538 1538 1538 1538 1539 1539 1539 1540 1540 1541 1541 1541 1542 1542 1542 1543 1543 1543 1543 1543 1543 1543 1543 1543 1543
1533 1533 1533 1533 1533 1532 1532 1532 1531 1532 1533 1533 1534 1534 1535 1535 1535 1535 1536 1536 1537 1537 1537 1538 1538 1539 1539 1540 1540 1541 1541 1541 1542 1542 1542 1542 1542 1542 1543 1542 1542 1542 1542
1532 1531 1531 1531 1531 1531 1530 1530 1530 1530 1530 1531 1531 1531 1532 1532 1533 1533 1534 1534 1534 1535 1535 1536 1536 1537 1537 1538 1539 1539 1539 1540 1540 1541 1541 1541 1541 1541 1541 1541 1541 1541 1541
1529 1529 1528 1528 1528 1528 1527 1527 1527 1527 1527 1528 1528 1529 1529 1529 1530 1531 1531 1532 1532 1532 1533 1533 1534 1534 1535 1536 1536 1537 1537 1538 1538 1539 1539 1540 1540 1540 1540 1540 1540 1540 1540
1525 1525 1524 1523 1523 1524 1524 1524 1524 1524 1524 1524 1525 1525 1526 1526 1527 1527 1528 1528 1529 1529 1529 1530 1530 1531 1531 1532 1533 1534 1534 1535 1535 1536 1537 1537 1537 1538 1538 1538 1538 1538 1538
1523 1523 1522 1521 1520 1520 1519 1519 1519 1519 1519 1520 1520 1521 1521 1521 1522 1523 1524 1525 1525 1526 1526 1526 1527 1528 1528 1529 1530 1531 1531 1531 1531 1532 1533 1534 1535 1535 1535 1536 1536 1536 1536
1521 1520 1519 1518 1517 1517 1515 1514 1514 1515 1515 1515 1515 1515 1516 1516 1516 1517 1518 1519 1520 1521 1521 1522 1523 1523 1524 1525 1526 1526 1527 1527 1528 1528 1529 1530 1531 1532 1532 1532 1533 1533 1533
1519 1517 1516 1515 1513 1512 1510 1509 1508 1508 1507 1508 1508 1509 1510 1510 1511 1511 1512 1513 1514 1515 1516 1517 1517 1518 1519 1520 1520 1521 1522 1523 1523 1523 1524 1525 1526 1527 1528 1528 1529 1529 1530
1515 1513 1511 1509 1508 1507 1504 1502 1501 1501 1500 1500 1500 1502 1503 1503 1504 1505 1505 1506 1507 1509 1510 1511 1512 1513 1513 1513 1514 1515 1516 1517 1518 1518 1519 1520 1521 1522 1523 1524 1525 1525 1526
1511 1508 1506 1504 1501 1499 1497 1495 1493 1493 1493 1492 1493 1494 1496 1496 1497 1497 1498 1498 1501 1502 1503 1505 1506 1506 1507 1506 1507 1507 1508 1509 1511 1511 1513 1513 1514 1516 1517 1518 1519 1521 1521
1507 1503 1499 1496 1492 1490 1487 1486 1484 1483 1483 1484 1485 1486 1488 1490 1490 1491 1491 1491 1494 1495 1496 1497 1498 1499 1499 1499 1499 1500 1500 1501 1502 1504 1504 1505 1507 1509 1510 1512 1514 1515 1516
1503 1498 1493 1488 1485 1481 1478 1477 1476 1474 1474 1476 1477 1478 1480 1481 1483 1484 1484 1485 1487 1487 1488 1489 1490 1492 1491 1492 1492 1493 1493 1494 1495 1496 1497 1498 1499 1501 1503 1505 1507 1508 1510
1498 1493 1488 1482 1480 1476 1472 1469 1467 1465 1465 1466 1469 1471 1472 1473 1475 1476 1476 1478 1480 1480 1481 1482 1484 1484 1485 1487 1486 1485 1484 1484 1485 1486 1490 1489 1490 1493 1495 1498 1499 1500 1502
1494 1489 1484 1480 1476 1473 1469 1466 1462 1458 1457 1459 1461 1464 1466 1467 1469 1469 1470 1471 1473 1474 1474 1474 1475 1476 1476 1479 1479 1480 1476 1475 1470 1474 1477 1479 1482 1484 1486 1489 1491 1492 1493
1491 1486 1482 1477 1473 1470 1466 1462 1459 1456 1456 1458 1458 1459 1460 1462 1464 1464 1464 1465 1466 1467 1467 1467 1469 1469 1468 1470 1469 1473 1468 1461 1463 1461 1465 1467 1471 1474 1477 1479 1481 1484 1485
1490 1485 1481 1476 1472 1468 1465 1461 1458 1457 1456 1456 1455 1455 1455 1457 1458 1459 1459 1459 1460 1460 1460 1460 1461 1463 1462 1459 1461 1458 1460 1457 1455 1451 1457 1458 1459 1463 1465 1468 1470 1474 1477
1489 1484 1480 1476 1472 1467 1465 1461 1458 1456 1455 1453 1452 1452 1452 1453 1454 1454 1454 1454 1454 1454 1453 1453 1453 1453 1454 1454 1453 1454 1451 1448 1455 1443 1448 1449 1451 1452 1454 1459 1463 1466 1468
1488 1483 1480 1476 1470 1467 1464 1461 1458 1455 1453 1451 1450 1450 1450 1449 1449 1448 1448 1448 1448 1448 1447 1446 1446 1445 1445 1445 1446 1446 1445 1435 1439 1441 1438 1441 1442 1443 1445 1451 1455 1456 1459